Tracking 35055 objects as of 18-Aug-2026
HD Live streaming from Space Station
objects crossing your sky now

SALYUT 7 DEB


SALYUT 7 DEB is no longer on orbit


NORAD ID: 16813
Int'l Code: 1982-033HB
Launch date: April 19, 1982
Source: Commonwealth of Independent States (former USSR) (CIS)
Launch site: TYURATAM MISSILE AND SPACE COMPLEX (TTMTR)
Decay date: 1987-01-27

Note: This is SATELLITE DEBRIS
Your satellite tracking list
Your tracking list is empty




NASA's NSSDC Master Catalog

Two Line Element Set (TLE):
1 16813U 82033 HB 87026.31477119  .04301168 +55500-4 +40310-3 0  9994
2 16813 051.5989 144.0345 0004996 321.7396 038.4083 16.37833988275240
Source of the keplerian elements: AFSPC